Retour au catalogue

STARLINK-6254

ActifCommunicationsVLEO
NORAD 57090·PAYLOAD·🇺🇸 United States

Lancé Jun 22, 2023 depuis Vandenberg Space Force Base

Loading…

Prochains Passages (prochaines 24 heures)

TLE

FraisSource: CelesTrak SupGP

Époque: Sep 15, 2026, 02:44 UTC

1 57090C 23088AU  26258.11437500  .00030697  00000+0  11120-2 0  2585
2 57090  43.0018 106.0565 0001784 269.4053  97.7131 15.27558782    10

Suivez STARLINK-6254 en temps réel avec AllMySat

Download on the App Store